User: anonymous   Login
Location: DARK SKY Beskydy - Park tmavé oblohy, www.darkskybeskydy.cz
(49.4926°N, 18.5016°E)
Time: 09:36:11
(UTC+01:00)
Language:

Vanguard 2 Rocket - Orbit

View from above orbital plane
View from above orbital plane
View from above satellite
View from above satellite

Ground track
Ground track

The orbit data is extracted from the following two-line orbital elements,

1 00012U 59001B   24055.86489734  .00001141  00000-0  66417-3 0  9997
2 00012  32.9067 312.4605 1657927 326.2549  24.2503 11.45992908434422
Epoch (UTC): 24 February 2024 20:45:27
Eccentricity: 0.1657927
inclination: 32.9067°
perigee height: 554 km
apogee height: 3310 km
right ascension of ascending node: 312.4605°
argument of perigee: 326.2549°
revolutions per day: 11.45992908
mean anomaly at epoch: 24.2503°
orbit number at epoch: 43442

The dashed part of the orbit path shows where the satellite is in the earth's shadow,  

DLR